Wind_Speed
16 17 17 17 16 15 14 13 11 11 10 9 7 6 4 1 1 2 3 4 5 6 7 8 9 9 10 12 13 13 13 13 12 12 12 11 12 13 13 14 14 14 15 15 15 16 16 17 18 19 19 20 21 23 24 24 25 26 27 27 28 29 30 31 32 33 34 35 35 36 36 37 37 37 37 38 38 38 39 40 40 41 42 44 45 46 47 48
15 17 17 17 17 17 15 13 11 10 9 8 7 5 3 1 1 2 3 4 4 5 7 8 9 10 11 12 12 11 11 11 10 11 12 12 13 14 15 15 14 15 15 16 16 17 17 19 20 21 23 24 25 26 27 28 28 29 30 31 32 32 33 34 35 36 37 38 38 39 39 40 40 40 40 41 41 42 42 42 43 43 44 45 47 48 48 49
15 16 16 16 16 15 14 13 11 10 9 7 6 4 2 1 0 1 2 3 5 6 7 9 10 11 11 10 10 10 10 10 11 12 13 13 14 15 15 15 15 16 17 18 19 20 21 22 24 25 26 27 28 29 30 31 31 32 33 34 34 35 36 36 37 38 39 39 40 41 41 42 42 43 43 43 44 44 45 45 45 45 45 46 47 48 49 50
15 15 15 15 15 14 13 13 11 10 8 7 5 4 2 1 1 2 3 4 5 6 7 8 9 9 9 9 9 9 9 11 11 11 13 14 15 15 15 16 16 18 20 21 22 23 23 24 26 27 28 29 30 31 32 33 33 34 35 36 36 37 38 39 39 40 40 40 41 42 42 43 43 44 44 45 45 46 47 47 47 46 46 47 47 48 49 49
15 14 14 14 14 13 13 12 11 9 8 6 5 3 2 2 2 3 4 5 5 6 7 7 7 7 8 8 8 9 10 11 11 11 13 14 15 16 17 18 19 20 22 23 24 24 25 26 27 28 29 30 31 32 33 34 34 35 36 36 37 38 39 39 40 40 40 40 41 41 42 43 43 44 44 44 45 47 47 47 47 47 47 47 48 49 49 50
15 14 14 14 14 13 12 11 10 8 7 5 4 3 3 3 4 4 5 5 6 6 6 6 6 7 7 7 8 9 10 10 11 12 13 15 16 17 18 19 20 22 23 24 25 25 26 27 28 29 30 31 32 33 33 34 35 35 36 37 38 38 39 39 39 39 40 40 41 41 42 43 44 44 43 44 45 46 47 47 48 48 48 48 49 50 50 51
16 15 15 14 14 13 11 10 9 8 6 5 5 5 5 5 5 4 4 5 5 6 6 6 6 7 8 8 8 9 10 11 12 14 15 16 17 19 20 21 22 23 24 25 26 27 28 29 30 30 31 32 33 33 34 34 35 35 36 37 38 38 39 40 40 40 40 41 42 42 43 44 44 43 43 43 45 47 47 48 49 49 50 50 51 52 52 53
17 16 15 15 14 13 11 10 9 8 7 7 7 7 6 5 4 4 4 5 6 7 6 6 6 7 8 8 9 10 11 12 14 15 16 18 19 20 21 23 23 24 26 26 27 28 29 30 30 31 32 32 33 33 34 34 35 36 36 37 38 38 39 40 40 41 41 42 42 43 44 44 44 43 42 43 46 47 47 49 50 51 51 52 53 54 55 55
18 17 16 16 14 13 12 11 9 9 9 9 8 7 6 4 4 5 6 7 7 7 6 6 6 7 8 9 9 11 12 14 15 17 18 19 20 21 22 23 24 25 26 26 27 29 29 30 31 32 32 33 33 33 34 34 35 36 36 37 37 38 39 40 40 41 41 42 42 43 43 44 44 43 42 44 46 47 48 50 51 52 53 54 55 56 57 58
19 19 18 17 16 14 12 11 11 11 11 10 9 6 5 5 6 8 8 8 7 7 6 7 7 8 8 10 11 12 14 15 16 17 18 20 20 21 23 24 24 26 26 27 28 29 30 31 32 32 33 33 33 33 34 34 35 35 36 36 37 37 38 38 39 40 40 40 41 41 42 43 43 43 44 45 46 48 50 51 52 53 54 55 57 58 60 61
21 21 20 18 16 14 13 13 13 12 12 10 8 6 7 8 9 9 8 8 7 7 7 7 7 8 9 11 13 14 15 16 17 18 19 20 21 22 24 25 25 26 27 28 29 29 30 31 31 32 32 32 33 33 33 33 34 35 35 35 36 36 37 37 38 39 39 40 41 41 42 42 44 45 46 47 48 50 52 53 54 55 56 57 58 60 61 62
23 22 20 18 16 15 15 14 14 13 11 9 8 9 11 11 10 9 8 8 8 8 7 7 8 9 11 13 14 15 15 16 17 19 21 21 22 23 25 26 26 27 28 29 29 30 30 30 30 31 32 32 33 33 33 34 34 34 34 35 36 36 36 37 38 39 40 41 42 43 42 42 46 47 48 50 51 53 54 55 56 57 58 58 59 60 61 62
24 22 20 18 17 17 16 15 15 13 11 11 12 13 13 11 10 10 9 9 9 8 8 8 10 11 12 13 14 15 16 18 19 20 21 22 23 25 26 27 27 28 29 29 30 31 30 31 31 31 32 32 33 33 34 34 34 35 35 36 36 37 38 39 40 41 42 42 44 45 43 43 47 49 51 52 53 55 56 56 57 58 59 59 60 61 62 63
24 22 20 19 18 18 17 16 14 13 13 14 15 14 13 12 11 10 10 9 9 8 9 10 11 12 12 13 14 16 17 19 20 21 22 24 25 26 27 28 29 30 30 30 31 31 31 32 32 32 32 33 33 34 34 34 35 35 35 36 37 37 38 41 42 42 43 45 46 47 46 45 48 51 53 54 53 54 55 56 57 58 59 60 61 62 64 64
24 22 21 20 19 19 17 16 15 16 17 16 15 14 13 12 11 10 9 9 9 9 9 10 11 12 13 15 16 17 17 19 22 24 25 26 27 27 29 30 31 31 31 31 31 31 32 32 32 33 33 34 34 34 34 35 35 36 36 37 38 38 39 41 43 43 44 46 47 48 49 47 50 53 54 54 54 55 55 56 57 58 59 60 61 63 63 63
24 23 22 21 20 19 18 18 18 19 18 16 15 15 14 13 11 10 9 8 9 9 10 11 12 13 14 16 18 19 20 21 23 24 25 26 27 28 29 30 30 30 31 31 31 31 32 32 32 33 34 34 34 34 35 36 36 37 38 38 38 40 40 40 42 44 45 47 48 50 51 50 51 54 55 56 57 58 59 60 60 61 61 61 62 62 62 62
24 23 22 21 20 20 20 21 21 19 18 17 16 15 14 12 10 9 9 9 9 9 10 11 14 16 16 18 20 20 21 22 23 23 25 27 28 30 30 30 30 31 32 33 34 35 34 34 34 34 34 34 34 34 36 36 36 37 37 37 37 39 40 39 40 43 45 46 48 50 52 52 52 54 56 58 59 60 61 62 62 63 62 62 61 60 61 61
24 24 23 22 22 22 23 22 20 19 18 17 16 14 12 11 9 9 10 9 8 10 12 14 17 17 17 18 19 19 20 22 23 24 27 29 30 31 31 31 33 34 35 36 37 38 37 36 37 37 37 36 36 37 38 39 40 39 39 39 38 38 39 39 40 41 44 45 47 50 51 51 52 53 55 57 58 59 60 61 62 61 61 60 59 60 61 62
25 24 24 24 24 24 23 21 20 19 18 17 15 14 11 10 9 10 9 8 9 13 14 15 16 15 15 17 18 20 22 24 25 28 31 31 32 33 33 36 38 39 40 40 40 41 42 43 43 42 42 42 43 44 45 45 46 46 45 45 44 44 42 41 41 43 45 45 47 51 52 51 51 52 53 54 55 56 57 58 58 58 58 58 59 60 61 61
26 26 26 26 25 24 22 21 20 19 18 16 14 13 11 10 10 10 10 10 12 14 14 15 15 16 18 19 20 23 24 26 29 31 33 34 35 37 39 41 43 43 44 44 45 46 47 48 49 48 49 50 51 52 52 51 52 52 52 51 50 49 48 44 43 44 46 46 47 51 52 51 51 51 51 51 51 52 53 54 54 55 56 57 58 59 59 59
29 29 28 27 25 24 23 22 20 18 17 15 13 13 12 11 11 11 11 12 12 13 14 16 16 19 22 23 24 26 27 30 32 34 36 37 39 41 42 43 44 45 45 45 47 48 48 49 50 50 52 53 53 54 55 55 55 55 55 56 53 52 52 49 46 46 48 49 49 52 52 51 51 50 50 50 51 51 51 51 52 53 54 55 56 57 57 57
30 29 28 26 25 24 23 22 20 17 16 14 13 12 12 11 12 12 12 12 13 14 15 16 17 21 23 24 26 28 30 33 35 37 40 40 41 42 42 43 44 44 45 45 47 48 48 49 49 50 51 52 53 54 55 55 56 56 57 57 55 54 56 54 51 51 53 53 53 55 55 54 53 52 52 51 51 51 51 51 51 52 53 53 54 54 55 57
30 28 27 26 25 24 23 21 18 16 14 13 12 12 11 12 12 12 13 13 14 16 17 18 20 22 24 25 27 30 32 35 36 38 39 39 40 41 41 42 43 43 44 45 46 47 48 49 50 51 52 53 54 55 55 55 56 56 58 58 57 58 60 59 57 56 57 56 57 59 58 56 55 54 53 52 52 52 52 52 52 53 53 54 54 55 57 59
29 28 27 26 25 24 21 19 17 15 13 12 12 11 11 12 12 13 14 14 15 17 19 20 21 23 26 28 30 32 34 36 37 38 38 39 40 40 40 41 42 44 45 46 47 48 49 50 51 52 53 54 55 55 55 56 56 56 58 58 59 59 60 61 60 59 58 58 59 60 59 58 56 54 54 53 53 52 52 53 53 53 54 55 57 58 60 62
29 28 28 26 24 22 20 18 16 15 14 13 13 12 12 12 12 12 14 14 16 18 20 22 24 26 29 31 31 33 35 36 37 38 39 39 40 40 41 42 43 45 46 47 48 49 50 51 52 53 54 55 56 56 56 57 57 57 58 59 59 60 60 60 61 61 61 59 58 58 58 58 56 56 55 55 54 53 54 55 55 56 57 59 60 62 64 65
29 28 27 25 23 21 19 17 16 15 15 15 14 13 12 12 12 12 13 14 17 18 20 24 26 28 30 32 32 33 35 37 38 39 41 40 40 42 42 43 45 45 47 48 49 50 52 52 53 53 54 55 56 57 58 58 58 58 58 59 60 60 61 61 62 62 62 60 57 55 56 59 58 58 57 56 55 56 57 57 58 60 61 62 63 65 66 66
29 27 25 24 22 20 18 17 16 15 15 15 14 13 13 12 12 13 13 14 18 21 22 25 28 30 32 33 33 34 37 38 39 41 41 40 41 43 44 46 47 47 48 49 50 52 53 53 54 54 54 55 56 57 58 58 58 58 59 60 60 60 61 62 63 61 61 61 58 55 57 60 60 59 58 56 56 58 59 59 61 62 62 64 66 66 66 67
27 26 24 22 21 19 18 18 17 16 15 14 13 13 13 12 13 14 14 16 19 23 25 27 30 32 32 33 34 35 37 39 39 40 40 40 42 43 45 47 48 48 49 49 51 52 53 54 54 54 54 55 56 57 58 58 59 58 59 59 60 61 62 63 63 60 60 62 59 56 59 61 61 59 57 57 57 59 60 61 63 63 64 65 65 65 68 71
26 24 23 21 20 19 18 17 16 16 15 13 13 13 13 13 14 14 16 18 21 24 27 29 30 32 33 34 34 35 37 38 38 39 40 41 43 44 45 47 48 49 50 51 53 54 55 55 55 55 55 55 56 57 58 59 59 59 59 59 59 60 61 62 61 59 60 61 59 57 59 61 60 57 56 58 60 61 62 63 64 65 65 64 64 67 70 71
24 23 21 20 19 19 17 16 15 14 13 13 13 13 14 15 15 15 17 21 22 25 28 29 30 32 33 33 34 34 35 37 38 40 42 43 44 46 46 47 49 50 52 53 54 56 57 57 57 56 56 55 56 57 58 59 59 60 60 60 58 57 57 58 57 56 56 57 56 55 56 58 59 56 55 59 61 62 63 64 65 66 66 65 66 68 68 68
23 22 21 19 19 17 16 15 14 13 13 13 13 14 15 17 17 17 19 21 23 25 27 28 30 31 31 32 33 33 34 36 38 40 41 42 44 45 45 46 48 49 50 50 51 54 58 58 58 57 56 56 56 56 56 57 58 60 62 63 61 58 58 58 56 54 55 54 53 54 54 55 57 56 57 60 62 63 64 66 67 66 65 65 65 65 65 68
22 21 20 19 17 16 15 14 13 13 13 13 13 14 16 17 17 19 21 22 23 25 25 27 28 29 30 31 32 33 34 36 38 39 41 42 44 45 46 49 51 52 53 53 52 54 58 60 59 58 57 57 57 56 55 55 56 60 62 64 65 64 64 65 62 59 59 58 56 55 55 55 56 57 59 61 63 64 65 66 65 62 61 61 61 64 70 75
21 20 19 17 16 15 13 12 12 12 13 13 13 15 18 18 18 20 22 22 23 23 23 25 26 27 30 31 33 34 35 36 38 40 42 44 46 49 50 52 55 56 58 59 59 58 59 62 62 60 59 60 59 60 60 60 60 63 65 66 67 67 69 70 68 64 64 63 59 57 57 58 59 60 62 63 64 66 65 60 56 56 57 58 63 70 76 78
20 19 17 16 15 14 12 12 11 12 13 12 12 16 18 18 19 20 21 21 22 22 23 24 25 27 30 32 33 35 36 37 38 39 42 45 47 50 52 54 56 58 60 62 64 64 61 63 66 63 62 62 61 62 63 63 64 65 65 66 66 66 68 70 68 66 66 67 64 59 59 60 63 66 65 65 66 64 58 51 50 55 59 64 71 76 78 80
19 18 16 14 14 13 12 11 11 11 12 11 13 17 17 16 19 20 20 20 20 21 23 24 26 27 30 32 34 36 36 37 38 39 42 46 49 52 54 56 58 60 63 64 66 67 63 62 66 65 63 64 62 61 63 63 64 65 65 65 65 64 65 67 67 65 65 68 67 63 63 65 66 68 67 67 66 59 53 52 54 59 64 70 75 77 79 82
19 17 16 15 14 13 12 11 10 11 11 10 14 17 16 16 18 19 18 19 19 20 22 23 26 27 29 32 34 36 37 38 39 40 43 47 50 54 56 57 60 62 65 67 68 71 67 63 66 66 64 64 63 61 63 64 65 66 66 66 65 64 64 66 67 64 62 67 70 67 67 68 68 69 68 66 62 54 53 56 59 64 69 72 76 78 80 81
18 17 16 15 15 14 13 11 10 11 10 10 14 16 14 16 17 17 17 18 18 20 21 22 25 26 28 31 33 35 37 38 39 41 44 48 52 55 57 59 61 63 66 68 70 73 72 68 67 68 65 65 64 63 63 65 66 67 68 68 68 68 67 67 67 65 62 66 72 70 69 70 70 70 68 64 59 56 58 63 66 71 75 76 78 78 77 76
18 17 16 16 15 14 13 11 10 11 9 11 14 14 13 16 16 16 16 17 18 19 21 22 24 26 28 30 32 35 37 38 40 42 45 49 52 56 58 60 62 64 67 70 71 73 75 73 71 70 69 67 66 65 65 64 65 67 67 68 68 69 71 70 68 65 63 66 73 74 72 71 71 69 67 63 59 60 67 73 76 77 78 78 77 76 74 73
17 17 16 16 15 14 13 11 10 9 10 12 13 11 12 15 15 15 15 16 18 19 21 22 24 26 28 30 32 35 37 39 41 43 46 50 53 56 59 61 63 65 67 70 72 74 76 78 75 72 71 70 68 68 67 66 67 68 69 68 67 67 69 71 69 65 64 66 71 76 77 74 70 69 66 62 61 68 76 79 79 78 76 76 75 74 74 74
16 16 15 15 14 14 13 11 8 8 11 13 11 10 12 13 14 15 15 16 18 19 21 23 24 26 27 29 32 35 37 40 42 44 47 50 54 57 60 62 64 66 68 70 73 75 76 79 79 76 74 73 71 72 72 72 71 72 71 70 69 67 68 70 70 66 66 68 70 75 79 76 71 70 68 65 69 75 78 78 77 75 74 73 73 74 75 76
15 16 15 14 14 14 12 8 7 10 12 10 9 10 11 12 13 14 15 16 18 19 21 23 24 26 27 29 32 35 37 40 42 45 48 51 55 58 61 63 65 66 69 70 72 75 76 79 81 80 78 76 74 74 74 73 72 71 71 71 70 70 69 71 73 72 71 70 69 74 80 77 73 74 73 72 75 76 74 74 73 72 72 73 74 75 76 75
14 16 15 14 14 13 9 7 9 11 10 8 8 10 11 11 12 14 15 16 17 19 21 23 25 26 27 29 32 35 37 40 42 45 48 52 56 59 62 64 66 67 70 71 73 75 76 78 81 81 79 76 74 73 71 70 70 69 70 71 71 70 70 71 73 75 76 75 74 77 81 79 75 76 75 74 75 73 70 70 71 72 74 75 76 76 75 72
14 15 15 13 12 10 8 9 10 8 8 8 8 9 10 12 12 13 15 16 17 20 21 23 25 26 27 29 32 35 38 40 43 46 49 53 57 60 62 64 66 68 71 72 74 76 77 78 81 82 81 78 75 74 72 70 70 71 72 73 73 71 71 71 71 75 79 80 79 80 83 83 78 76 75 74 73 70 68 70 72 75 77 77 77 76 71 66
14 14 13 12 11 9 9 10 9 7 8 8 7 8 10 12 12 13 15 17 18 20 22 23 25 26 28 30 32 35 38 40 43 46 50 54 58 61 63 65 66 69 71 74 76 77 78 79 81 85 86 85 83 81 79 76 74 75 75 75 75 73 73 74 74 77 80 82 81 81 85 86 80 76 75 74 72 71 71 73 76 78 78 77 75 71 65 60
13 12 11 11 10 9 9 9 8 7 7 7 7 9 9 11 12 13 14 17 18 20 22 23 25 27 29 31 33 36 38 41 44 47 51 55 59 62 65 66 67 69 72 75 77 79 80 80 80 83 86 86 85 84 83 81 79 78 77 76 76 76 76 77 78 80 82 84 83 80 84 87 83 78 77 75 74 75 76 77 78 78 76 74 70 66 61 57
10 10 10 9 9 9 9 8 7 6 7 7 7 9 10 11 12 13 14 16 18 20 22 24 25 27 29 31 33 36 39 42 45 48 52 56 60 63 66 67 68 69 72 75 78 80 81 81 80 81 84 83 81 80 80 79 80 80 79 79 79 79 79 79 79 81 82 84 85 80 82 87 85 80 80 79 77 79 80 80 80 77 73 70 67 63 59 55
9 9 9 9 9 9 9 8 6 5 6 6 7 9 10 11 12 13 14 16 18 20 22 24 26 27 29 31 34 37 40 42 46 49 53 57 60 63 66 68 69 70 72 75 79 81 83 84 83 82 83 83 81 80 79 78 79 81 81 81 81 82 81 80 80 81 81 83 87 86 84 87 86 82 81 80 79 81 82 81 78 74 71 69 66 61 57 53
7 8 8 8 8 9 9 8 6 5 5 6 7 9 10 11 12 13 14 16 18 21 23 25 26 28 30 33 35 37 41 43 46 50 53 57 60 63 66 68 69 70 72 75 79 81 83 85 85 84 84 84 82 81 81 80 79 81 82 82 83 83 83 82 81 80 79 82 88 90 87 87 86 83 82 80 81 83 81 77 74 71 68 66 63 60 55 51
6 7 6 6 6 7 9 8 6 5 5 6 7 9 10 12 12 13 15 17 18 21 23 25 27 29 32 34 36 39 42 45 47 51 54 57 60 63 66 69 70 71 72 75 79 82 84 85 86 86 86 85 84 83 83 82 81 81 82 83 84 85 85 84 81 80 81 84 87 89 89 87 85 83 82 81 82 82 78 72 69 67 64 62 60 57 54 49
5 5 5 5 5 6 8 9 7 5 4 6 7 9 10 12 12 13 15 17 19 22 24 26 29 31 33 35 38 41 44 46 49 52 54 57 61 63 67 69 71 71 72 75 79 82 84 86 86 87 88 87 86 86 84 83 82 82 83 84 87 88 88 86 82 82 86 89 90 90 91 89 85 82 82 81 82 81 74 68 65 63 61 59 56 54 50 46
4 4 3 4 5 7 8 9 8 5 5 5 7 8 10 12 13 14 16 18 20 22 25 27 29 31 33 36 39 42 45 47 50 53 55 58 61 64 67 70 71 72 72 75 79 82 84 86 86 87 88 89 89 89 87 86 85 84 85 88 90 90 90 88 84 84 88 92 94 94 94 92 87 83 83 83 83 78 70 65 64 62 60 57 54 52 48 44
3 3 2 2 5 7 8 9 8 6 5 5 6 8 10 12 14 15 17 19 21 23 25 28 30 32 34 37 40 42 46 48 50 53 55 58 61 64 68 70 71 72 72 74 78 81 84 87 88 88 90 91 91 91 91 90 89 88 88 90 92 91 92 90 86 86 89 92 94 95 94 91 88 85 85 85 83 76 67 63 63 62 59 56 52 50 47 43
Wind_Direction
135 139 143 144 145 145 145 146 143 135 127 122 117 114 117 113 352 339 337 336 335 335 337 341 344 344 339 332 330 334 339 342 346 349 349 349 349 348 346 344 341 338 334 330 327 324 322 319 316 314 312 311 310 309 308 306 304 304 303 301 300 300 299 297 295 293 292 291 290 289 288 286 285 284 283 282 281 281 281 280 279 278 277 277 277 277 277 277
140 137 140 140 140 140 141 140 135 130 125 122 118 119 125 107 28 340 332 338 348 350 351 349 345 340 336 335 339 346 351 353 357 356 352 351 350 349 346 343 340 337 334 331 328 325 323 320 319 317 314 312 311 310 309 307 307 306 304 303 303 302 300 298 297 295 294 293 292 291 290 290 289 288 286 284 283 282 281 280 279 278 277 277 276 276 276 276
150 142 141 139 139 141 140 137 132 128 124 122 122 125 125 115 29 339 350 6 11 8 358 347 340 339 342 348 354 359 2 4 3 357 352 352 352 349 345 343 340 336 334 330 327 325 322 321 319 317 315 313 312 311 310 309 307 306 305 304 303 301 299 298 297 296 295 294 294 294 293 292 291 290 288 287 285 284 283 282 281 279 278 277 276 276 275 275
157 151 146 142 140 140 137 132 129 126 125 126 126 126 129 122 42 23 30 30 21 5 351 343 344 350 0 7 8 8 8 7 2 355 354 354 352 347 343 340 337 333 331 328 326 323 321 319 317 315 314 313 312 311 310 309 308 306 305 303 302 300 299 298 297 297 296 295 295 294 293 292 291 289 288 287 286 285 284 284 282 281 280 278 278 277 276 275
160 157 152 147 143 139 133 129 129 130 131 129 127 128 124 92 65 55 46 31 9 355 351 356 5 15 20 18 15 12 9 7 1 357 356 354 348 343 339 337 333 330 328 326 324 321 319 318 316 315 314 313 312 312 310 309 308 306 305 303 301 300 299 298 298 297 296 295 294 293 292 290 289 288 287 286 285 284 284 284 283 282 281 280 279 278 278 277
163 162 157 150 145 138 133 133 135 136 135 130 127 125 112 92 75 58 37 14 2 7 17 29 36 33 26 20 17 14 12 9 1 357 354 349 345 341 338 335 331 328 326 325 323 321 320 319 318 318 317 315 314 313 312 310 309 307 305 303 302 301 300 300 299 298 296 295 293 292 291 290 290 289 288 287 285 284 284 283 283 282 282 281 280 280 279 278
167 165 159 151 145 141 140 142 143 141 136 132 129 120 106 91 73 46 23 20 35 51 53 52 48 36 27 24 21 16 12 7 360 354 349 344 342 340 337 335 332 329 327 326 325 324 323 322 321 320 318 317 316 314 312 311 310 308 306 305 304 303 303 302 301 299 298 296 294 293 292 291 291 291 291 289 287 286 285 285 284 283 283 282 281 281 280 279
168 165 158 150 146 146 148 150 147 142 137 133 124 110 99 86 64 44 49 66 75 72 63 54 46 34 28 28 23 13 8 3 357 351 346 342 340 339 337 335 333 331 330 328 327 325 324 323 321 320 318 317 315 314 313 312 310 309 308 307 306 306 304 304 303 301 300 298 296 295 294 294 293 293 293 291 289 288 287 286 285 284 283 282 281 280 280 279
165 161 155 152 151 151 153 151 145 139 134 125 113 105 97 84 76 83 89 91 84 73 63 54 45 37 30 25 18 8 4 359 353 349 346 343 341 340 337 335 333 332 331 328 326 325 323 322 321 319 318 316 315 314 313 311 310 309 308 307 306 305 304 304 303 301 299 298 297 296 296 295 295 293 291 289 289 287 285 284 283 283 282 281 280 280 279 278
161 158 156 154 152 153 152 147 141 134 125 116 111 108 101 98 102 102 98 90 82 72 64 57 47 36 26 17 10 2 359 355 350 348 345 343 341 339 337 335 334 333 331 329 328 327 325 323 322 320 318 317 315 314 312 311 310 309 307 307 306 305 304 303 301 299 298 297 296 295 295 295 294 291 289 288 287 285 284 283 282 282 281 280 280 279 279 278
158 156 154 151 151 151 147 142 135 127 120 117 116 114 111 110 106 99 91 85 79 71 64 57 43 28 16 10 4 356 355 352 348 347 345 343 339 337 338 337 336 335 333 331 331 329 327 324 322 320 318 316 315 314 312 311 309 308 307 307 305 303 303 300 298 297 297 296 295 294 294 294 293 292 291 290 288 286 286 285 284 283 282 281 281 280 279 279
154 151 149 147 148 147 142 136 129 124 123 123 122 118 114 109 101 93 88 84 76 69 62 48 32 20 10 5 359 352 351 349 347 347 344 341 338 338 339 338 337 336 335 334 332 330 327 324 321 319 318 317 316 314 313 311 310 309 307 306 304 304 303 300 298 297 296 295 294 292 292 293 293 292 291 290 289 288 288 288 287 286 285 284 283 282 281 280
148 145 145 146 145 142 137 132 128 128 129 126 123 118 112 106 99 93 87 82 74 64 51 35 23 13 6 0 354 350 349 348 347 344 341 342 341 340 340 339 338 337 337 335 332 330 327 324 323 322 320 318 316 315 313 312 310 309 307 306 305 305 304 302 300 299 298 296 295 293 291 290 291 290 289 288 288 288 288 288 288 287 286 285 284 283 282 281
142 142 143 143 141 137 134 132 131 131 129 125 120 114 108 103 98 93 87 80 67 52 38 27 17 9 3 359 356 351 348 346 345 344 346 347 345 343 342 340 340 338 337 334 332 330 328 327 325 323 321 319 318 316 314 312 310 308 308 307 306 305 305 305 302 301 300 298 296 295 293 292 291 290 289 289 289 289 288 287 286 285 285 284 283 283 283 283
140 141 141 139 137 136 135 134 132 129 125 120 114 109 104 101 98 92 83 70 55 41 30 22 14 6 0 359 357 351 348 349 351 352 352 349 346 345 344 342 341 340 337 335 334 332 330 329 327 326 324 323 321 318 315 315 314 312 311 309 307 304 303 304 303 301 299 298 297 296 295 293 292 291 291 292 291 290 289 287 286 286 285 284 284 284 284 284
139 139 138 137 138 138 136 133 129 125 121 115 110 106 103 100 94 84 74 60 45 33 27 19 10 4 360 357 357 356 357 358 357 355 352 349 347 347 347 346 343 342 340 339 338 337 336 334 333 331 329 326 324 322 321 321 319 316 313 311 308 305 303 301 300 299 297 296 296 297 296 293 291 292 293 292 292 291 291 290 290 289 288 287 287 286 286 285
137 137 138 139 139 136 132 128 125 121 116 112 108 105 102 96 86 77 64 50 37 27 24 17 12 9 4 1 2 2 2 1 358 356 353 353 353 352 351 349 347 347 347 345 344 344 344 342 339 336 334 333 331 329 327 325 323 319 316 314 311 309 306 303 301 298 297 296 295 296 295 293 292 292 292 292 292 292 292 291 291 290 290 289 289 287 286 284
139 140 140 139 135 131 127 124 121 117 113 111 109 105 98 89 77 65 54 46 33 24 19 15 14 12 8 8 6 4 5 3 1 359 359 360 359 357 355 354 355 354 353 352 351 350 349 347 345 344 342 340 337 336 334 332 330 328 326 323 320 317 313 309 306 303 302 300 298 296 294 294 293 292 292 291 291 291 291 291 291 291 291 290 288 287 286 286
141 140 137 133 130 128 124 121 116 113 112 110 108 102 93 81 67 55 49 43 32 24 17 15 16 14 15 15 11 10 10 6 5 6 6 5 3 1 0 360 360 358 357 357 355 353 351 349 349 348 346 344 343 342 341 338 336 334 333 331 329 327 324 317 312 308 306 305 301 296 295 295 294 292 291 291 292 291 291 291 291 291 290 289 288 288 288 288
139 135 132 130 129 127 123 118 114 113 111 108 104 96 86 73 62 53 45 38 30 23 19 19 18 18 20 18 17 17 13 9 11 11 10 9 6 5 4 2 1 360 358 356 354 352 350 349 348 347 346 345 344 342 341 339 337 336 335 334 332 331 330 324 317 311 308 308 304 297 296 297 295 294 294 295 295 294 294 293 293 292 291 290 290 289 290 290
135 133 131 130 128 125 121 118 115 113 109 104 97 88 79 70 61 53 44 39 33 27 25 24 22 23 21 18 19 18 14 15 16 15 12 11 8 6 4 2 0 358 356 353 352 351 349 348 346 345 343 342 341 339 339 338 337 336 335 334 333 331 330 328 323 317 313 312 308 303 302 303 302 302 302 301 300 298 297 296 295 293 293 292 292 292 292 291
133 132 130 127 124 121 119 117 114 111 106 99 91 83 77 69 61 53 47 44 38 34 32 30 29 28 24 22 22 19 18 19 17 15 13 10 7 5 2 1 359 357 355 353 352 350 349 347 345 343 342 340 339 338 337 337 336 335 334 333 332 330 328 327 325 322 319 317 314 311 310 310 310 309 307 305 303 301 300 299 298 298 297 297 296 295 293 291
132 130 127 124 122 120 118 115 112 107 100 93 88 83 76 68 59 52 48 43 40 37 35 33 32 30 26 26 25 23 23 20 17 16 12 8 6 3 1 1 359 358 356 354 352 350 348 347 345 344 342 340 339 338 337 337 336 335 332 331 331 329 327 325 323 323 323 321 317 315 315 314 314 311 308 306 305 304 304 304 304 303 302 301 299 298 296 294
130 127 124 122 121 118 115 111 106 100 94 91 88 82 74 66 59 52 46 43 41 38 36 34 34 32 28 27 27 26 24 20 16 14 9 7 6 2 0 0 360 359 357 354 352 350 348 347 346 344 342 340 339 338 336 335 335 333 331 330 329 328 327 326 324 323 323 321 319 317 316 315 314 311 310 310 309 310 310 309 307 306 304 303 302 301 299 297
127 124 122 121 119 116 112 107 102 98 93 89 83 78 72 65 59 53 49 45 42 39 37 35 35 32 29 28 28 26 22 18 14 11 8 7 4 2 1 359 359 359 357 353 351 350 348 347 346 344 342 340 338 337 336 335 334 333 331 330 328 328 327 326 326 325 324 322 320 317 315 314 314 313 313 314 314 314 312 310 308 306 306 305 304 302 301 299
124 123 122 120 117 113 110 106 104 100 93 86 79 76 72 65 59 54 49 44 42 40 37 35 35 31 28 28 26 23 21 16 12 10 9 7 5 5 3 360 359 358 357 353 350 349 348 346 345 343 341 340 338 337 336 335 334 333 332 330 329 330 329 327 327 326 325 323 321 318 316 316 316 316 316 316 316 314 311 309 308 307 307 305 304 302 301 300
123 123 122 119 115 112 110 108 105 99 91 84 79 75 72 67 62 55 49 44 41 40 38 37 35 31 28 27 24 21 20 16 12 12 9 7 8 7 5 3 359 357 357 354 350 350 348 345 344 343 342 340 338 336 335 335 334 334 333 332 331 331 330 328 327 327 326 323 322 321 319 317 318 318 318 318 316 313 311 309 309 307 306 305 303 302 301 300
124 124 121 117 114 112 110 107 102 96 90 84 80 76 73 69 63 55 48 44 42 41 39 37 34 31 29 26 24 22 20 15 13 12 10 9 9 8 7 6 0 356 356 355 352 351 348 346 345 344 342 341 339 337 336 335 335 335 334 333 333 332 331 329 328 328 326 323 323 323 320 318 319 320 321 319 315 312 311 310 309 308 307 305 304 303 303 302
125 122 118 115 114 112 110 107 102 96 90 85 81 77 73 67 60 53 46 44 44 42 39 37 34 31 29 27 25 23 19 15 12 11 11 10 10 10 9 6 2 358 356 356 354 351 349 348 347 346 344 343 341 338 337 337 336 335 335 334 334 333 332 329 328 329 326 323 324 324 322 319 318 320 320 316 313 312 312 311 310 309 308 306 304 304 304 302
122 119 117 116 114 113 111 107 101 95 90 86 82 76 73 66 58 52 48 46 46 44 40 37 35 32 30 28 26 21 17 13 11 10 10 9 8 9 7 4 4 2 359 357 354 352 351 351 349 348 346 345 344 341 339 338 336 335 334 335 335 335 332 329 328 328 325 324 324 323 321 319 317 319 318 314 313 314 313 313 311 310 308 306 305 305 304 303
120 118 117 116 115 114 111 105 99 93 88 85 82 76 70 64 57 52 50 47 46 46 42 38 36 33 31 28 24 19 16 13 10 9 9 9 9 8 7 6 6 5 3 1 357 354 353 353 351 350 348 347 346 345 342 340 337 336 335 335 335 336 334 332 331 329 327 327 326 324 322 320 319 320 318 315 316 316 315 314 312 311 309 306 305 305 303 301
120 119 118 118 116 113 109 103 97 91 86 82 80 75 67 62 56 52 50 49 48 47 43 39 36 32 29 26 22 18 15 12 10 10 10 10 11 9 8 8 7 6 5 4 2 358 354 353 353 351 349 348 347 347 347 344 340 338 338 336 335 335 335 335 334 333 332 331 330 328 325 322 322 321 319 319 319 317 316 315 313 311 308 304 302 300 299 299
120 120 119 118 115 110 105 101 94 90 86 81 79 73 66 60 55 51 50 49 48 46 42 38 34 31 27 25 21 16 13 11 10 10 9 10 10 9 8 7 6 5 4 3 3 2 357 354 355 353 350 349 347 347 348 348 345 342 341 339 337 336 334 334 334 333 333 332 332 331 327 324 324 323 323 323 321 320 319 315 310 307 303 299 297 298 300 301
121 121 119 117 113 108 104 97 91 88 85 82 78 71 65 59 54 52 50 48 47 44 40 36 32 28 26 23 19 15 12 11 10 9 9 10 9 8 8 7 5 4 3 3 3 3 360 356 356 355 352 351 349 347 348 348 347 345 343 341 340 337 334 333 333 332 331 331 332 333 329 326 326 326 328 327 323 321 317 310 303 300 299 299 301 303 303 302
122 119 116 115 111 107 101 93 88 86 84 80 75 70 64 58 54 52 50 47 46 42 37 33 29 26 24 21 18 14 12 11 10 9 8 9 8 8 8 7 6 5 4 3 2 3 3 358 356 356 353 352 351 349 348 349 348 347 345 344 342 339 334 333 333 332 330 330 332 333 331 330 329 329 330 327 323 319 313 307 303 302 302 302 304 304 302 302
120 117 115 112 106 102 95 89 85 84 82 79 74 69 63 58 53 50 48 46 44 40 36 32 29 26 23 20 17 14 12 10 10 9 7 8 7 7 8 8 7 6 5 4 2 3 4 2 358 357 355 353 353 351 349 349 348 347 346 345 344 341 337 334 334 334 331 330 333 334 332 332 331 330 331 327 322 317 310 307 305 304 304 305 305 304 304 304
114 112 110 106 101 95 86 81 81 82 81 80 75 68 61 56 51 48 46 44 42 39 36 32 28 25 22 20 17 14 13 11 9 8 7 7 7 7 8 8 8 8 6 5 3 2 3 4 0 358 357 355 355 354 352 350 349 347 347 346 346 344 341 337 335 335 332 330 333 334 332 332 333 332 331 327 321 315 310 308 308 309 310 310 308 308 307 307
110 107 103 99 94 87 80 74 74 81 85 79 74 67 58 54 49 46 44 41 39 36 33 31 26 22 21 19 17 14 12 11 9 8 7 7 7 7 8 8 9 9 7 6 4 2 2 3 3 1 359 357 356 357 355 353 351 349 349 348 346 344 343 341 337 336 333 330 332 334 334 334 335 334 330 326 321 316 313 313 315 316 315 313 312 311 311 311
110 106 101 96 89 82 77 69 67 82 87 78 72 65 57 52 45 43 41 38 36 33 30 27 23 21 19 16 15 13 12 11 9 8 8 7 8 8 9 9 9 9 8 7 5 3 2 2 4 3 0 358 357 357 357 356 354 352 351 350 349 346 343 343 342 336 332 331 331 333 335 337 336 334 330 327 322 319 318 319 320 318 317 315 315 315 314 313
109 103 97 94 89 81 73 63 63 82 83 76 71 63 54 48 42 40 39 35 33 29 27 24 20 19 17 15 14 13 12 11 10 9 8 8 8 9 9 9 9 9 8 7 6 4 3 2 3 4 2 360 358 357 357 357 356 354 351 350 349 346 344 345 346 341 334 334 334 332 334 339 339 335 333 329 324 323 323 322 320 319 318 318 317 317 315 314
104 97 90 85 82 75 67 60 68 76 75 73 69 60 50 43 38 37 35 33 30 27 24 21 19 17 16 14 13 12 12 11 10 9 8 8 8 9 9 9 9 8 8 7 6 5 4 3 3 4 3 2 1 360 359 358 357 354 352 350 348 347 345 343 345 345 339 337 336 332 333 340 340 336 334 330 326 326 325 323 322 321 321 320 319 317 316 315
97 91 84 77 72 70 66 63 66 68 70 73 67 56 46 38 35 33 32 30 27 25 22 19 17 15 14 13 12 12 12 11 10 9 8 8 7 8 8 8 8 8 7 7 6 5 4 3 3 4 4 3 2 1 0 359 359 357 354 351 350 349 346 342 342 343 342 340 339 336 337 341 341 336 333 330 328 329 327 326 325 324 323 322 320 319 318 319
91 85 81 77 72 69 67 62 61 62 67 70 63 52 42 34 32 30 28 27 23 22 20 17 16 14 13 12 11 11 11 10 10 8 7 7 7 7 8 8 8 8 7 6 5 5 4 3 3 3 4 4 3 2 2 2 1 0 357 354 353 351 348 346 343 342 342 343 341 339 340 343 343 337 333 331 331 332 331 330 328 327 326 324 322 322 324 325
87 84 82 79 72 64 62 59 56 60 66 63 57 48 38 30 28 27 25 23 21 19 17 15 14 13 11 11 10 10 10 9 8 7 6 6 7 7 7 7 7 7 7 6 5 5 5 4 2 1 2 3 3 3 4 4 3 2 359 356 354 353 351 350 347 343 343 345 345 342 340 342 343 339 336 335 335 336 335 334 331 329 328 326 326 328 331 333
86 86 85 80 68 56 56 56 51 56 61 57 50 43 34 27 26 24 21 19 18 17 15 14 13 12 10 10 10 9 8 7 6 5 5 5 7 7 7 7 7 7 7 7 6 5 5 5 3 2 1 2 2 2 2 3 3 2 0 357 355 354 354 352 349 345 344 346 348 344 338 341 345 342 340 341 340 339 338 336 333 331 330 330 332 336 338 338
87 87 85 78 65 51 48 49 45 49 53 48 43 37 30 26 23 21 18 15 15 14 13 12 11 10 9 9 8 7 6 6 5 4 5 5 6 7 7 7 7 7 7 7 6 6 6 6 5 4 3 2 2 2 1 1 1 1 1 360 357 355 355 354 350 347 346 346 348 346 340 341 345 344 343 346 344 341 340 337 335 333 333 335 338 341 341 341
84 84 82 73 59 45 39 39 37 41 42 37 34 31 26 22 19 18 15 12 12 12 11 11 10 9 9 8 7 6 5 4 3 3 4 5 6 7 7 8 7 6 6 7 7 6 6 7 7 5 4 3 3 2 2 1 1 0 0 360 359 358 357 355 352 350 348 345 347 349 345 344 346 346 346 347 344 342 341 338 336 336 338 340 342 344 345 344
76 77 76 67 53 39 31 28 28 33 30 25 27 25 21 18 15 12 10 8 9 10 9 10 9 8 8 7 6 4 3 3 3 3 4 5 6 7 7 7 7 6 6 6 6 6 6 7 7 6 5 5 4 2 2 2 1 1 0 0 0 359 358 357 355 352 349 346 347 349 348 348 348 348 349 348 345 343 342 339 338 340 342 343 344 347 348 348
68 68 70 63 46 29 23 19 17 20 17 14 19 20 17 14 9 6 5 5 6 7 8 8 8 8 7 5 4 3 2 3 3 3 4 5 5 6 7 7 7 6 6 6 6 6 6 6 6 6 6 5 5 3 3 3 2 2 2 1 1 1 1 360 357 352 350 349 349 350 350 350 351 350 350 349 346 344 343 341 342 344 346 347 348 350 351 351
58 58 63 60 37 18 13 11 6 4 2 3 11 15 12 8 4 1 1 2 3 6 7 7 7 7 6 4 3 2 2 2 2 3 4 4 5 5 6 6 6 6 6 6 6 6 6 6 6 6 5 5 5 5 4 3 2 2 3 2 2 2 3 3 358 353 351 351 352 351 351 353 353 351 351 350 348 347 346 344 345 348 349 351 352 353 354 355
46 42 51 53 31 11 4 2 358 349 347 356 4 9 7 3 360 358 358 0 2 4 5 6 6 5 4 3 2 1 1 1 2 3 4 4 5 5 5 6 6 6 6 6 5 5 5 5 5 5 5 5 5 5 4 4 3 2 3 4 3 2 2 3 360 355 352 352 352 353 354 354 354 352 352 352 351 350 348 347 349 351 352 353 354 356 358 359
27 24 34 40 20 8 358 354 351 340 335 346 357 3 2 359 357 357 357 360 2 3 5 5 5 4 2 1 1 0 0 1 2 3 3 4 4 4 5 5 5 6 6 6 5 5 5 5 4 5 5 5 5 6 5 3 3 4 5 5 4 3 2 3 1 356 354 353 353 355 355 354 354 353 353 354 354 352 350 349 351 354 355 357 357 358 1 4
Height
5792 5793 5794 5796 5797 5799 5800 5802 5804 5805 5807 5808 5810 5811 5811 5812 5812 5812 5812 5812 5811 5811 5810 5810 5809 5809 5809 5808 5807 5806 5805 5803 5802 5801 5800 5799 5798 5797 5796 5795 5794 5792 5791 5790 5788 5786 5785 5783 5782 5780 5778 5776 5774 5773 5771 5769 5767 5765 5763 5761 5758 5756 5754 5752 5750 5748 5746 5743 5741 5739 5737 5735 5732 5730 5728 5726 5724 5721 5719 5717 5714 5712 5709 5707 5704 5702 5700 5698
5793 5793 5795 5796 5798 5800 5801 5803 5805 5806 5808 5809 5810 5811 5811 5812 5812 5812 5812 5811 5811 5810 5810 5809 5809 5809 5808 5807 5806 5805 5804 5803 5802 5801 5800 5799 5798 5797 5796 5795 5793 5792 5791 5789 5788 5786 5784 5782 5781 5779 5777 5775 5773 5771 5769 5767 5765 5762 5760 5758 5756 5753 5751 5749 5747 5745 5742 5740 5737 5735 5733 5731 5728 5726 5724 5722 5719 5716 5714 5712 5710 5707 5704 5702 5699 5697 5695 5693
5793 5794 5796 5797 5799 5801 5802 5804 5805 5807 5808 5809 5810 5811 5811 5812 5812 5812 5811 5811 5811 5810 5810 5809 5809 5808 5807 5806 5805 5804 5804 5803 5802 5801 5801 5799 5798 5797 5796 5795 5793 5792 5790 5789 5787 5785 5783 5781 5779 5777 5775 5773 5771 5769 5767 5764 5762 5760 5758 5756 5753 5751 5748 5746 5744 5741 5739 5736 5734 5731 5729 5727 5724 5722 5719 5717 5714 5712 5709 5707 5705 5702 5700 5696 5694 5692 5691 5689
5793 5795 5796 5798 5800 5802 5803 5805 5806 5807 5808 5809 5810 5811 5811 5812 5811 5811 5811 5811 5811 5810 5810 5809 5809 5808 5807 5806 5805 5805 5804 5803 5802 5802 5801 5799 5798 5797 5796 5794 5793 5791 5790 5788 5786 5784 5782 5780 5778 5776 5774 5772 5769 5767 5765 5762 5760 5758 5756 5753 5750 5748 5745 5743 5740 5738 5736 5733 5730 5728 5725 5723 5720 5718 5715 5712 5709 5707 5704 5702 5699 5697 5694 5691 5689 5687 5685 5683
5794 5795 5797 5799 5801 5803 5804 5805 5806 5807 5809 5809 5810 5811 5811 5811 5811 5811 5811 5811 5811 5810 5810 5809 5808 5808 5807 5806 5806 5805 5804 5803 5803 5802 5800 5799 5798 5797 5796 5794 5792 5791 5789 5787 5785 5783 5781 5779 5777 5775 5773 5770 5768 5765 5763 5760 5758 5755 5753 5750 5747 5745 5742 5739 5737 5734 5732 5729 5726 5723 5721 5718 5715 5712 5710 5707 5704 5701 5698 5695 5693 5691 5688 5685 5683 5681 5680 5678
5794 5796 5798 5800 5802 5803 5805 5806 5807 5808 5809 5810 5810 5811 5811 5811 5811 5811 5811 5811 5811 5810 5810 5809 5808 5808 5807 5807 5806 5805 5804 5804 5803 5802 5801 5799 5798 5797 5795 5794 5792 5790 5789 5787 5785 5782 5780 5778 5776 5773 5771 5768 5766 5763 5760 5758 5755 5753 5750 5747 5744 5741 5739 5736 5733 5730 5728 5725 5721 5719 5716 5713 5710 5707 5704 5700 5698 5695 5692 5689 5687 5684 5682 5679 5677 5675 5673 5672
5794 5796 5799 5801 5802 5804 5805 5806 5807 5808 5809 5810 5810 5811 5811 5811 5811 5811 5811 5811 5810 5810 5810 5809 5809 5808 5808 5807 5806 5806 5805 5804 5803 5802 5801 5800 5798 5797 5795 5794 5792 5789 5787 5785 5783 5781 5778 5776 5773 5771 5768 5765 5763 5760 5758 5755 5752 5750 5747 5744 5741 5738 5735 5732 5729 5726 5723 5720 5717 5714 5711 5708 5705 5701 5698 5694 5691 5690 5687 5683 5681 5679 5676 5673 5671 5668 5667 5665
5794 5797 5799 5801 5803 5804 5806 5806 5807 5808 5809 5810 5810 5811 5811 5812 5812 5811 5811 5811 5811 5810 5810 5810 5809 5809 5808 5808 5807 5806 5805 5804 5803 5802 5801 5800 5798 5797 5795 5793 5791 5788 5786 5783 5781 5778 5776 5773 5771 5768 5765 5763 5760 5758 5755 5752 5749 5746 5743 5740 5737 5734 5731 5728 5725 5722 5718 5715 5712 5709 5706 5703 5700 5696 5692 5688 5686 5684 5681 5678 5676 5673 5670 5668 5665 5662 5660 5658
5795 5797 5800 5802 5803 5805 5806 5807 5808 5809 5809 5810 5811 5811 5812 5812 5812 5812 5811 5811 5811 5811 5811 5810 5810 5809 5809 5808 5807 5807 5806 5805 5803 5802 5801 5799 5798 5796 5794 5792 5790 5787 5785 5782 5780 5777 5774 5772 5769 5766 5763 5760 5758 5755 5752 5749 5746 5743 5740 5736 5733 5730 5727 5724 5720 5717 5714 5711 5708 5705 5702 5698 5694 5690 5686 5683 5682 5679 5676 5673 5671 5668 5665 5662 5659 5656 5654 5651
5795 5798 5800 5802 5804 5805 5806 5807 5808 5809 5810 5810 5811 5812 5812 5812 5812 5812 5812 5812 5812 5812 5811 5811 5810 5810 5809 5809 5808 5807 5806 5805 5803 5802 5800 5799 5797 5795 5793 5791 5789 5786 5784 5781 5778 5775 5772 5769 5766 5763 5761 5758 5755 5752 5749 5746 5742 5739 5736 5732 5729 5726 5723 5720 5716 5712 5709 5706 5703 5700 5697 5694 5689 5684 5680 5678 5677 5673 5670 5668 5665 5663 5660 5656 5653 5650 5647 5644
5796 5798 5800 5802 5804 5805 5806 5808 5808 5809 5810 5811 5812 5812 5812 5812 5813 5813 5813 5813 5813 5812 5812 5811 5811 5811 5810 5809 5808 5807 5806 5805 5803 5802 5800 5798 5796 5794 5792 5790 5787 5785 5782 5779 5777 5773 5770 5767 5764 5761 5758 5755 5752 5749 5746 5742 5739 5735 5732 5729 5725 5722 5718 5715 5711 5707 5704 5701 5698 5695 5693 5689 5682 5677 5674 5671 5669 5666 5663 5661 5658 5656 5652 5649 5646 5642 5639 5635
5796 5799 5801 5803 5804 5806 5807 5808 5809 5810 5810 5811 5812 5812 5813 5813 5813 5814 5814 5813 5813 5813 5812 5812 5812 5811 5810 5809 5808 5807 5806 5804 5803 5801 5799 5798 5796 5793 5791 5788 5786 5784 5781 5778 5775 5772 5769 5766 5763 5759 5756 5753 5749 5746 5742 5739 5736 5732 5728 5725 5721 5718 5714 5710 5706 5702 5698 5695 5692 5688 5687 5683 5675 5670 5667 5664 5661 5658 5656 5653 5650 5647 5644 5641 5638 5634 5630 5626
5797 5799 5801 5803 5805 5806 5807 5808 5809 5810 5811 5812 5812 5813 5813 5814 5814 5814 5814 5814 5814 5814 5813 5813 5812 5811 5810 5809 5808 5807 5805 5804 5802 5801 5799 5797 5795 5792 5790 5787 5785 5782 5779 5776 5773 5770 5767 5764 5761 5757 5754 5750 5747 5743 5739 5736 5733 5729 5726 5721 5718 5714 5709 5704 5701 5697 5692 5689 5686 5681 5681 5678 5669 5663 5659 5656 5654 5651 5648 5645 5642 5639 5636 5633 5629 5626 5621 5618
5798 5800 5802 5804 5806 5807 5808 5809 5810 5811 5812 5813 5813 5814 5814 5815 5815 5815 5815 5815 5815 5815 5814 5813 5813 5812 5811 5810 5808 5807 5805 5804 5802 5800 5798 5796 5793 5791 5788 5786 5783 5780 5777 5775 5772 5768 5765 5761 5758 5755 5751 5748 5744 5741 5737 5733 5730 5726 5723 5718 5714 5711 5706 5700 5696 5693 5688 5684 5680 5674 5673 5672 5664 5657 5653 5650 5648 5644 5641 5638 5634 5631 5628 5625 5621 5617 5614 5612
5798 5801 5803 5805 5806 5807 5808 5809 5810 5812 5813 5813 5814 5815 5815 5815 5816 5816 5816 5816 5816 5815 5815 5814 5813 5812 5811 5809 5808 5807 5805 5803 5801 5799 5796 5794 5792 5790 5787 5784 5781 5779 5776 5773 5770 5766 5763 5759 5756 5752 5749 5745 5741 5737 5734 5730 5726 5722 5719 5715 5710 5707 5704 5698 5692 5689 5685 5680 5676 5669 5666 5666 5659 5652 5648 5644 5641 5638 5634 5630 5627 5624 5620 5616 5613 5610 5606 5604
5799 5802 5804 5805 5807 5808 5809 5810 5811 5813 5814 5814 5815 5816 5816 5816 5817 5817 5817 5817 5817 5816 5815 5814 5813 5812 5810 5809 5807 5806 5804 5802 5800 5798 5796 5794 5791 5789 5786 5783 5780 5777 5774 5771 5768 5765 5762 5758 5754 5750 5746 5742 5738 5735 5730 5727 5723 5718 5714 5711 5707 5703 5700 5697 5690 5684 5680 5676 5671 5663 5659 5658 5654 5648 5643 5638 5634 5630 5625 5622 5619 5615 5612 5609 5606 5602 5599 5596
5801 5803 5805 5806 5807 5809 5810 5811 5813 5814 5815 5815 5816 5817 5817 5818 5818 5818 5818 5817 5817 5816 5815 5814 5813 5811 5810 5808 5807 5805 5804 5802 5800 5798 5796 5793 5790 5787 5785 5782 5779 5776 5772 5769 5765 5762 5759 5755 5751 5748 5744 5740 5736 5732 5728 5724 5720 5716 5712 5708 5704 5699 5694 5692 5687 5681 5676 5671 5666 5659 5654 5651 5648 5643 5637 5631 5627 5622 5617 5613 5610 5606 5603 5601 5598 5594 5590 5587
5802 5804 5805 5807 5809 5810 5812 5813 5814 5815 5816 5817 5817 5818 5819 5819 5819 5819 5818 5818 5817 5816 5815 5814 5812 5811 5810 5809 5807 5806 5804 5803 5801 5798 5796 5792 5789 5786 5783 5780 5777 5774 5770 5767 5763 5759 5756 5752 5749 5745 5741 5737 5733 5730 5725 5720 5716 5711 5708 5703 5699 5695 5689 5685 5682 5676 5671 5666 5659 5653 5649 5646 5642 5637 5631 5626 5622 5616 5610 5606 5602 5598 5595 5593 5589 5585 5581 5578
5802 5805 5807 5808 5810 5812 5813 5814 5815 5816 5817 5818 5819 5819 5820 5820 5820 5819 5819 5818 5817 5816 5815 5814 5813 5812 5811 5810 5808 5806 5804 5802 5800 5797 5794 5791 5788 5785 5782 5779 5776 5772 5769 5765 5762 5758 5754 5751 5747 5743 5739 5735 5731 5726 5721 5715 5710 5706 5702 5697 5693 5689 5685 5679 5674 5670 5664 5661 5654 5646 5642 5640 5636 5632 5626 5621 5616 5610 5605 5600 5595 5591 5587 5584 5580 5577 5573 5569
5804 5806 5808 5809 5811 5813 5814 5816 5817 5818 5819 5820 5820 5821 5821 5821 5820 5820 5819 5818 5817 5816 5816 5814 5813 5812 5811 5809 5807 5805 5803 5801 5798 5795 5792 5789 5787 5784 5780 5777 5773 5770 5767 5764 5761 5757 5753 5749 5745 5741 5736 5731 5726 5721 5717 5712 5706 5701 5696 5692 5687 5683 5680 5675 5669 5663 5657 5653 5648 5639 5634 5632 5628 5624 5619 5614 5610 5604 5598 5593 5589 5584 5580 5576 5573 5569 5565 5561
5805 5807 5809 5811 5812 5814 5815 5817 5818 5819 5820 5821 5822 5822 5821 5821 5821 5820 5819 5819 5818 5817 5816 5815 5813 5811 5809 5808 5806 5804 5803 5800 5797 5794 5791 5788 5785 5782 5779 5776 5773 5770 5767 5764 5760 5755 5751 5747 5743 5739 5734 5729 5724 5719 5714 5709 5703 5697 5692 5687 5683 5678 5674 5671 5664 5657 5651 5646 5640 5632 5627 5624 5619 5615 5611 5606 5601 5596 5591 5586 5582 5578 5573 5569 5565 5561 5557 5553
5807 5809 5810 5812 5814 5815 5817 5818 5819 5821 5821 5822 5823 5822 5822 5822 5821 5821 5820 5820 5819 5818 5816 5815 5813 5811 5809 5808 5805 5804 5801 5798 5795 5793 5790 5788 5785 5782 5779 5776 5773 5770 5766 5762 5758 5754 5750 5746 5742 5737 5732 5727 5722 5716 5711 5705 5699 5693 5688 5682 5678 5672 5668 5666 5661 5652 5644 5638 5631 5624 5619 5615 5611 5606 5602 5598 5593 5588 5584 5579 5574 5570 5566 5561 5557 5553 5549 5545
5808 5810 5812 5814 5815 5817 5818 5820 5821 5822 5822 5823 5823 5823 5822 5822 5822 5821 5820 5820 5819 5817 5816 5814 5813 5811 5810 5808 5806 5804 5801 5798 5796 5794 5792 5789 5786 5783 5780 5776 5773 5769 5765 5761 5757 5753 5749 5744 5739 5734 5729 5724 5718 5713 5708 5702 5696 5690 5684 5678 5674 5667 5661 5658 5655 5649 5640 5631 5622 5614 5610 5607 5604 5599 5595 5590 5586 5581 5576 5571 5566 5562 5557 5553 5548 5544 5540 5535
5810 5812 5814 5816 5817 5819 5820 5821 5822 5823 5823 5824 5824 5823 5823 5823 5822 5821 5821 5820 5819 5817 5816 5815 5813 5811 5810 5808 5806 5804 5801 5800 5797 5795 5792 5789 5786 5783 5779 5775 5772 5769 5764 5760 5756 5751 5746 5741 5736 5730 5725 5720 5714 5709 5704 5700 5695 5688 5681 5675 5669 5664 5656 5650 5645 5642 5637 5628 5617 5607 5602 5601 5597 5592 5588 5583 5577 5573 5568 5563 5559 5554 5550 5545 5540 5535 5530 5525
5812 5814 5816 5817 5819 5820 5822 5823 5823 5824 5824 5824 5824 5824 5824 5823 5822 5822 5821 5820 5819 5817 5816 5815 5813 5812 5810 5808 5806 5804 5802 5799 5798 5795 5792 5789 5786 5782 5778 5774 5771 5767 5762 5757 5752 5748 5743 5738 5733 5728 5722 5717 5711 5706 5700 5695 5691 5685 5679 5672 5665 5659 5652 5645 5638 5633 5629 5623 5614 5604 5596 5594 5592 5586 5580 5574 5569 5565 5561 5557 5552 5547 5542 5537 5531 5526 5521 5515
5814 5816 5818 5819 5820 5822 5823 5824 5824 5825 5825 5825 5825 5824 5824 5823 5823 5822 5821 5820 5819 5818 5816 5815 5813 5811 5810 5808 5806 5804 5802 5800 5797 5794 5790 5788 5784 5780 5776 5772 5768 5765 5760 5755 5750 5745 5740 5735 5731 5726 5720 5714 5707 5701 5696 5691 5686 5680 5674 5667 5661 5654 5647 5640 5633 5626 5619 5614 5609 5601 5592 5586 5584 5579 5573 5568 5564 5559 5555 5550 5545 5540 5534 5529 5523 5517 5512 5506
5816 5818 5819 5821 5822 5823 5824 5825 5825 5825 5825 5825 5825 5825 5824 5823 5823 5822 5821 5821 5819 5818 5817 5815 5813 5811 5810 5808 5806 5804 5801 5799 5796 5792 5790 5787 5783 5779 5775 5770 5765 5762 5758 5753 5748 5743 5738 5733 5728 5724 5718 5712 5705 5699 5693 5688 5682 5676 5669 5662 5656 5650 5643 5635 5628 5622 5614 5607 5602 5597 5588 5580 5576 5572 5566 5562 5558 5553 5548 5543 5538 5533 5527 5521 5515 5508 5503 5497
5818 5819 5821 5822 5823 5824 5825 5826 5826 5826 5826 5826 5826 5825 5824 5824 5823 5822 5822 5821 5820 5818 5817 5815 5814 5812 5810 5808 5806 5804 5801 5799 5796 5793 5790 5786 5782 5778 5773 5769 5764 5760 5756 5752 5747 5742 5737 5732 5727 5721 5716 5709 5703 5696 5690 5683 5677 5672 5666 5659 5652 5645 5638 5629 5623 5618 5610 5601 5596 5592 5582 5573 5570 5566 5560 5555 5551 5546 5541 5536 5530 5524 5518 5512 5506 5499 5493 5486
5820 5821 5822 5823 5824 5825 5826 5827 5827 5827 5827 5826 5826 5825 5825 5824 5823 5823 5822 5821 5820 5818 5816 5815 5813 5812 5810 5808 5805 5803 5801 5799 5796 5793 5789 5786 5782 5778 5773 5769 5764 5758 5754 5749 5743 5738 5733 5729 5724 5718 5712 5707 5700 5693 5685 5678 5671 5666 5661 5656 5650 5643 5635 5626 5619 5614 5607 5597 5591 5586 5578 5568 5564 5564 5557 5549 5545 5540 5533 5528 5522 5515 5509 5503 5497 5490 5483 5476
5821 5822 5824 5825 5826 5826 5827 5828 5828 5827 5827 5827 5826 5825 5825 5824 5824 5823 5822 5821 5820 5818 5816 5815 5813 5811 5809 5807 5805 5803 5801 5798 5795 5792 5788 5785 5780 5776 5772 5768 5764 5758 5752 5745 5739 5734 5730 5725 5720 5715 5709 5703 5697 5689 5681 5673 5666 5661 5656 5652 5648 5643 5634 5626 5619 5613 5606 5597 5590 5584 5577 5566 5559 5558 5554 5545 5539 5533 5526 5520 5513 5507 5500 5494 5487 5480 5473 5466
5823 5824 5825 5826 5827 5828 5828 5828 5828 5828 5827 5827 5827 5826 5825 5824 5824 5824 5822 5821 5820 5818 5816 5815 5813 5811 5810 5808 5806 5804 5802 5799 5796 5792 5789 5786 5782 5778 5775 5771 5767 5762 5756 5751 5744 5736 5729 5724 5718 5712 5707 5701 5695 5689 5681 5673 5664 5656 5648 5641 5637 5634 5629 5621 5615 5609 5601 5593 5587 5579 5572 5564 5556 5551 5546 5539 5532 5525 5518 5511 5504 5497 5491 5485 5478 5471 5464 5457
5824 5825 5826 5827 5828 5828 5829 5829 5829 5828 5828 5828 5827 5826 5826 5825 5825 5824 5822 5821 5819 5818 5817 5815 5814 5812 5810 5808 5806 5804 5802 5799 5796 5793 5790 5786 5782 5779 5775 5770 5765 5760 5755 5750 5744 5737 5728 5721 5716 5709 5703 5696 5690 5686 5681 5674 5663 5653 5644 5633 5623 5617 5611 5605 5600 5595 5589 5583 5578 5572 5564 5558 5551 5545 5539 5532 5525 5518 5510 5503 5495 5489 5483 5476 5470 5463 5455 5448
5826 5827 5828 5828 5829 5829 5829 5829 5829 5829 5828 5828 5828 5827 5826 5825 5825 5824 5822 5821 5819 5818 5817 5816 5814 5812 5810 5808 5806 5804 5802 5799 5796 5792 5788 5784 5780 5775 5770 5765 5760 5754 5749 5743 5739 5733 5725 5717 5711 5703 5696 5689 5682 5675 5669 5663 5654 5644 5634 5624 5613 5602 5593 5586 5582 5579 5575 5571 5569 5565 5556 5549 5544 5538 5532 5524 5516 5508 5501 5495 5488 5482 5476 5469 5462 5454 5446 5438
5827 5828 5828 5829 5829 5829 5830 5830 5829 5829 5829 5828 5828 5827 5826 5826 5825 5824 5822 5821 5820 5818 5817 5816 5814 5812 5810 5808 5806 5804 5801 5798 5795 5791 5787 5783 5779 5774 5769 5764 5758 5752 5746 5740 5734 5728 5720 5710 5703 5696 5689 5682 5675 5666 5658 5652 5645 5637 5629 5620 5611 5600 5589 5579 5573 5568 5563 5558 5557 5556 5549 5541 5533 5526 5520 5513 5505 5498 5492 5488 5483 5475 5468 5460 5452 5444 5436 5429
5828 5829 5829 5830 5830 5830 5830 5830 5830 5829 5829 5829 5829 5827 5827 5827 5826 5824 5823 5821 5820 5818 5817 5816 5814 5812 5810 5808 5806 5803 5800 5797 5794 5790 5786 5782 5778 5773 5768 5763 5757 5751 5745 5738 5731 5725 5718 5707 5698 5692 5685 5677 5671 5664 5656 5650 5644 5636 5628 5619 5610 5602 5592 5582 5575 5568 5559 5550 5546 5546 5540 5533 5524 5516 5511 5504 5496 5490 5484 5479 5475 5466 5459 5452 5443 5436 5428 5419
5829 5829 5830 5830 5830 5830 5831 5831 5830 5830 5830 5830 5829 5828 5828 5827 5826 5824 5823 5821 5820 5819 5817 5815 5813 5812 5810 5807 5805 5802 5799 5796 5793 5789 5785 5781 5776 5771 5766 5761 5755 5749 5742 5735 5728 5721 5716 5708 5698 5690 5683 5674 5667 5659 5651 5643 5637 5629 5623 5616 5608 5599 5588 5578 5571 5565 5557 5546 5539 5536 5531 5525 5519 5511 5505 5497 5489 5484 5477 5471 5466 5459 5452 5445 5435 5426 5417 5407
5830 5830 5831 5831 5831 5831 5831 5831 5831 5830 5830 5830 5829 5828 5829 5827 5826 5824 5823 5822 5820 5819 5817 5815 5814 5812 5810 5807 5804 5801 5798 5795 5792 5788 5784 5780 5775 5769 5764 5759 5753 5747 5740 5733 5726 5718 5713 5707 5698 5689 5681 5673 5666 5659 5649 5639 5631 5623 5616 5608 5600 5593 5584 5573 5562 5556 5550 5540 5533 5530 5525 5519 5513 5504 5496 5490 5482 5477 5470 5463 5457 5449 5440 5431 5422 5413 5404 5395
5831 5831 5831 5831 5831 5831 5832 5832 5832 5831 5831 5831 5829 5829 5829 5827 5826 5825 5823 5822 5820 5819 5817 5816 5814 5812 5809 5807 5804 5801 5798 5795 5791 5787 5783 5778 5773 5768 5762 5756 5750 5745 5738 5731 5723 5716 5709 5704 5696 5686 5677 5669 5662 5657 5650 5643 5634 5624 5615 5606 5594 5584 5576 5567 5556 5547 5541 5534 5526 5523 5520 5514 5507 5500 5491 5483 5476 5468 5460 5451 5443 5434 5425 5416 5407 5399 5390 5382
5831 5832 5832 5832 5832 5832 5832 5832 5832 5832 5832 5831 5830 5830 5829 5827 5826 5825 5823 5822 5820 5819 5817 5815 5813 5811 5808 5806 5803 5800 5797 5794 5790 5786 5782 5777 5772 5766 5760 5754 5748 5741 5735 5729 5722 5713 5705 5698 5692 5683 5674 5666 5660 5655 5650 5642 5631 5620 5611 5604 5595 5585 5574 5565 5557 5547 5538 5531 5521 5512 5509 5508 5502 5494 5486 5478 5469 5458 5448 5438 5429 5422 5413 5404 5395 5386 5377 5369
5832 5832 5832 5833 5833 5833 5833 5833 5834 5833 5832 5831 5830 5830 5829 5828 5826 5825 5823 5822 5820 5819 5817 5815 5813 5811 5808 5805 5803 5800 5796 5793 5789 5785 5780 5776 5771 5765 5759 5752 5745 5739 5733 5727 5720 5713 5704 5695 5689 5683 5675 5665 5654 5644 5635 5627 5619 5610 5601 5595 5589 5583 5576 5568 5563 5553 5538 5527 5518 5506 5500 5501 5496 5486 5478 5470 5460 5450 5440 5429 5420 5412 5404 5395 5385 5376 5366 5358
5833 5833 5833 5834 5833 5833 5834 5834 5834 5833 5831 5831 5831 5830 5829 5828 5826 5825 5823 5822 5821 5819 5817 5815 5812 5810 5808 5805 5802 5799 5795 5792 5788 5784 5779 5774 5769 5763 5757 5750 5744 5738 5731 5726 5719 5712 5704 5696 5688 5682 5674 5664 5653 5643 5633 5625 5618 5608 5598 5590 5583 5575 5567 5559 5554 5549 5538 5527 5519 5505 5493 5490 5486 5477 5470 5462 5452 5443 5434 5423 5412 5403 5395 5385 5376 5367 5357 5348
5834 5833 5834 5834 5834 5834 5835 5835 5834 5833 5832 5832 5831 5830 5829 5828 5826 5825 5824 5822 5821 5819 5816 5814 5812 5809 5807 5804 5801 5798 5794 5791 5787 5782 5778 5773 5767 5761 5755 5749 5742 5736 5729 5723 5717 5711 5704 5697 5690 5683 5675 5666 5659 5652 5643 5634 5625 5614 5603 5593 5584 5573 5563 5552 5541 5536 5531 5523 5515 5503 5490 5483 5480 5471 5463 5455 5446 5437 5428 5417 5405 5395 5385 5375 5365 5355 5347 5339
5834 5834 5835 5835 5835 5836 5836 5835 5834 5833 5833 5832 5831 5830 5829 5828 5826 5825 5824 5822 5820 5818 5816 5814 5811 5809 5806 5803 5800 5797 5794 5790 5786 5781 5777 5772 5766 5760 5754 5747 5740 5734 5727 5720 5713 5707 5700 5693 5687 5682 5679 5673 5665 5656 5646 5634 5623 5614 5604 5592 5582 5573 5563 5553 5542 5531 5523 5515 5505 5494 5482 5477 5475 5467 5457 5448 5439 5430 5420 5409 5396 5384 5374 5364 5354 5344 5337 5330
5835 5835 5836 5837 5837 5837 5836 5835 5834 5834 5833 5832 5831 5830 5829 5828 5827 5825 5824 5822 5820 5818 5815 5813 5810 5808 5805 5803 5800 5796 5793 5789 5785 5780 5775 5770 5765 5758 5752 5745 5738 5731 5724 5717 5710 5702 5694 5685 5677 5669 5664 5659 5653 5645 5636 5628 5617 5607 5597 5587 5579 5572 5564 5554 5543 5530 5520 5513 5503 5488 5473 5468 5467 5460 5450 5440 5429 5419 5409 5399 5388 5375 5364 5354 5344 5336 5329 5322
5836 5837 5837 5837 5837 5837 5836 5835 5835 5834 5833 5832 5831 5830 5829 5828 5827 5825 5823 5821 5819 5817 5815 5812 5810 5807 5804 5802 5799 5795 5792 5788 5783 5779 5774 5768 5763 5756 5750 5743 5736 5730 5723 5715 5707 5699 5691 5682 5672 5660 5648 5638 5629 5622 5616 5611 5607 5602 5596 5587 5576 5568 5560 5549 5538 5526 5515 5506 5498 5485 5469 5460 5459 5452 5440 5430 5418 5407 5398 5388 5378 5367 5356 5346 5337 5330 5323 5315
5838 5838 5838 5838 5838 5837 5836 5835 5835 5834 5833 5832 5831 5830 5829 5828 5827 5825 5823 5821 5819 5817 5814 5812 5809 5806 5804 5801 5798 5794 5790 5786 5782 5777 5772 5767 5761 5755 5748 5741 5734 5728 5721 5714 5706 5698 5690 5682 5672 5661 5650 5640 5631 5624 5616 5609 5603 5598 5592 5584 5574 5563 5554 5545 5535 5523 5509 5495 5489 5485 5470 5454 5447 5440 5428 5419 5408 5397 5388 5378 5367 5358 5349 5340 5332 5324 5317 5311
5839 5839 5838 5838 5838 5837 5836 5836 5835 5834 5833 5832 5831 5830 5829 5828 5826 5825 5823 5821 5818 5816 5814 5811 5808 5806 5803 5800 5797 5793 5789 5785 5780 5775 5771 5765 5759 5753 5746 5740 5733 5726 5720 5713 5705 5697 5690 5682 5673 5663 5653 5644 5635 5627 5620 5613 5604 5595 5587 5580 5571 5562 5554 5545 5533 5518 5503 5488 5479 5477 5467 5451 5439 5431 5420 5410 5401 5390 5380 5370 5359 5350 5341 5333 5326 5320 5313 5307
5840 5839 5839 5839 5838 5838 5837 5836 5835 5834 5833 5832 5831 5830 5829 5828 5826 5824 5822 5820 5818 5816 5813 5810 5808 5805 5802 5799 5796 5792 5788 5784 5779 5774 5769 5764 5758 5752 5746 5739 5733 5726 5719 5712 5704 5697 5689 5681 5674 5667 5657 5648 5639 5630 5622 5614 5605 5596 5587 5579 5572 5563 5552 5540 5525 5511 5500 5490 5476 5467 5460 5449 5437 5426 5416 5406 5395 5385 5376 5365 5354 5345 5337 5330 5322 5315 5309 5303
5840 5840 5839 5839 5839 5838 5837 5836 5835 5834 5833 5832 5831 5830 5829 5827 5826 5824 5822 5820 5817 5815 5812 5810 5807 5804 5801 5798 5795 5791 5787 5783 5778 5774 5768 5763 5757 5751 5745 5738 5732 5725 5717 5710 5702 5695 5687 5680 5673 5666 5659 5651 5642 5633 5623 5615 5607 5599 5589 5579 5571 5562 5547 5531 5517 5506 5498 5490 5478 5466 5457 5449 5436 5422 5412 5403 5394 5384 5373 5362 5352 5343 5335 5328 5320 5313 5307 5301
5840 5840 5840 5839 5839 5838 5837 5836 5835 5834 5833 5832 5831 5830 5829 5827 5825 5823 5821 5819 5817 5815 5812 5809 5806 5803 5800 5797 5793 5790 5785 5781 5777 5772 5767 5762 5756 5749 5743 5736 5730 5723 5715 5708 5701 5693 5686 5678 5672 5665 5659 5652 5644 5635 5625 5615 5605 5596 5588 5578 5565 5552 5540 5526 5514 5503 5492 5482 5474 5465 5453 5442 5430 5419 5410 5402 5392 5380 5368 5357 5349 5342 5334 5327 5320 5313 5307 5302
5841 5840 5840 5839 5839 5838 5837 5836 5835 5834 5833 5832 5831 5830 5828 5827 5825 5823 5821 5819 5816 5814 5811 5808 5805 5802 5799 5796 5792 5788 5784 5779 5775 5770 5765 5760 5754 5748 5741 5735 5728 5721 5714 5707 5699 5692 5685 5678 5672 5666 5657 5649 5641 5632 5623 5614 5605 5595 5584 5570 5554 5539 5529 5521 5511 5499 5487 5475 5467 5458 5445 5431 5422 5415 5407 5399 5388 5375 5363 5353 5345 5339 5332 5326 5319 5313 5308 5302
5841 5840 5840 5839 5839 5838 5837 5836 5835 5834 5833 5832 5831 5830 5828 5826 5824 5822 5820 5818 5816 5813 5811 5808 5805 5801 5798 5794 5790 5786 5782 5778 5773 5768 5764 5758 5752 5746 5739 5733 5726 5720 5713 5706 5699 5691 5683 5675 5668 5660 5652 5645 5636 5626 5617 5609 5601 5588 5571 5557 5545 5534 5524 5517 5509 5500 5490 5477 5464 5451 5439 5429 5421 5411 5401 5392 5382 5370 5359 5350 5343 5337 5331 5326 5319 5313 5308 5303